Home   Weather   Pittsburgh   Past weeks

Flag for USA Past Weather in Pittsburgh, Pennsylvania, USA — Yesterday and Last 2 Weeks

Now
35 °F

Clear.


Feels Like: 32 °F
Forecast: 38 / 54 °F
Wind: 3 mph from East

Location: Allegheny County Airport

Current Time: Jan 20, 2017 at 1:11:32 am

Latest Report: Jan 19, 2017 at 11:53 pm


Visibility: 9 mi

Pressure: 29.94 "Hg

Humidity: 85%

Dew Point: 31 °F

Location of PittsburghLocation

Past Weather in Pittsburgh — Graph

°F

Pittsburgh Temperature Yesterday

Maximum temperature yesterday: 42 °F (at 2:21 pm)
Minimum temperature yesterday: 35 °F (at 9:53 pm)
Average temperature yesterday: 38 °F

High & Low Weather Summary for the Past Weeks

 TemperatureHumidityPressure
High65 °F (Jan 12, 2:53 pm)93% (Jan 16, 11:53 pm)30.74 "Hg (Jan 16, 11:53 pm)
Low5 °F (Jan 9, 1:53 am)34% (Jan 9, 4:53 pm)29.82 "Hg (Jan 17, 3:27 pm)
Average32 °F70%30.21 "Hg
* Reported Jan 4 11:53 pm — Jan 19 11:53 pm, Pittsburgh, Weather by CustomWeather, © 2017

Note: Actual official high and low records may vary slightly from our data, if they occured in-between our weather recording intervals... More about our weather records

Advertising

Pittsburgh Weather History for the Previous 24 Hours

Scroll right to see more
 ConditionsComfort  
Time TempWeatherWind HumidityBarometerVisibility
11:53 pm
Thu, Jan 19
35 °FClear.3 mph85%29.94 "Hg9 mi
10:53 pm36 °FClear.5 mph82%29.95 "Hg9 mi
9:53 pm35 °FClear.5 mph82%29.96 "Hg9 mi
8:53 pm36 °FClear.5 mph79%29.97 "Hg8 mi
7:53 pm37 °FClear.3 mph79%30.00 "Hg10 mi
6:53 pm39 °FClear.No wind76%30.03 "Hg10 mi
5:53 pm39 °FClear.No wind73%30.02 "Hg10 mi
4:53 pm41 °FSunny.3 mph70%30.04 "Hg10 mi
3:53 pm42 °FOvercast.7 mph71%30.04 "Hg10 mi
2:53 pm41 °FOvercast.7 mph70%30.04 "Hg10 mi
2:21 pm42 °FOvercast.7 mph71%29.98 "Hg10 mi
1:53 pm40 °FOvercast.6 mph73%30.03 "Hg10 mi
1:00 pm40 °FOvercast.3 mph73%30.02 "Hg10 mi
12:53 pm40 °FLow clouds.6 mph73%30.06 "Hg10 mi
11:53 am39 °FLow clouds.No wind79%30.10 "Hg10 mi
11:22 am39 °FLow clouds.6 mph76%30.08 "Hg10 mi
11:00 am39 °FOvercast.3 mph76%30.08 "Hg10 mi
10:53 am39 °FLow clouds.3 mph76%30.12 "Hg10 mi
9:53 am38 °FLow clouds.7 mph79%30.14 "Hg10 mi
8:53 am38 °FLow clouds.8 mph79%30.14 "Hg10 mi
8:15 am38 °FOvercast.9 mph79%30.10 "Hg10 mi
7:53 am37 °FLow clouds.7 mph82%30.13 "Hg10 mi
6:53 am37 °FLow clouds.8 mph82%30.12 "Hg10 mi
5:53 am37 °FLow clouds.6 mph82%30.12 "Hg10 mi
5:44 am37 °FLow clouds.6 mph82%30.07 "Hg10 mi
5:01 am37 °FOvercast.6 mph82%30.07 "Hg10 mi
4:53 am37 °FMostly cloudy.5 mph82%30.11 "Hg10 mi
4:04 am37 °FLow clouds.9 mph82%30.08 "Hg10 mi
3:53 am37 °FOvercast.8 mph86%30.13 "Hg10 mi
3:33 am37 °FOvercast.6 mph86%30.09 "Hg10 mi
2:53 am37 °FLow clouds.9 mph86%30.13 "Hg10 mi
2:00 am37 °FLow clouds.8 mph86%30.08 "Hg10 mi
1:19 am38 °FOvercast.10 mph83%30.08 "Hg10 mi
Weather by CustomWeather, © 2017

See weather overviewHow to use our weather pages